Voltar ao catálogo

COSMOS 1269

AtivoNavegaçãoLEO
NORAD 12442·PAYLOAD·🇷🇺 Russia

Lançado May 7, 1981 de Plesetsk Cosmodrome

Loading…

Próximas Passagens (próximas 24 horas)

TLE

AtualizadoSource: Space-Track

Época: Sep 14, 2026, 06:26 UTC

1 12442U 81041A   26257.26810733  .00000080  00000-0  38481-4 0  9995
2 12442  74.0538 203.0131 0008833  43.9190 316.2662 14.33149328368742

Acompanhe COSMOS 1269 em tempo real com AllMySat

Download on the App Store